This is the latest recevied weather packets stored in our database for station/object KK4PWJ-13. If no packets are shown the sender has not sent any weather packets the latest 10 day(s).
| Time | Temp. | Humidity | Pressure | Rain* | Wind** | Luminosity | Snow |
|---|---|---|---|---|---|---|---|
| 1778170460 | 18.89° C | 99% | 1006.6 hPa | 1.78 mm | - | 94 W/m² | - |
| 1778170158 | 18.89° C | 99% | 1007 hPa | 1.27 mm | - | 75 W/m² | - |
| 1778169854 | 18.89° C | 99% | 1007.3 hPa | 4.83 mm | - | 101 W/m² | - |
| 1778169550 | 18.89° C | 99% | 1007.8 hPa | 3.56 mm | - | 88 W/m² | - |
| 1778169246 | 18.89° C | 99% | 1008 hPa | 0 mm | - | 56 W/m² | - |
| 1778168943 | 18.89° C | 99% | 1008 hPa | 1.27 mm | - | 59 W/m² | - |
| 1778168640 | 18.89° C | 99% | 1007.8 hPa | 1.78 mm | - | 53 W/m² | - |
| 1778168337 | 19.44° C | 99% | 1007.7 hPa | 1.78 mm | - | 68 W/m² | - |
| 1778168179 | 18.89° C | 99% | 1008 hPa | 0 mm | - | 44 W/m² | - |
| 1778168033 | 18.89° C | 99% | 1008 hPa | 0 mm | - | 44 W/m² | - |
| 1778167935 | 19.44° C | 99% | 1007.8 hPa | 0 mm | - | 52 W/m² | - |
| 1778167730 | 19.44° C | 99% | 1007.8 hPa | 0 mm | - | 52 W/m² | - |
| 1778167554 | 19.44° C | 99% | 1007.2 hPa | 1.27 mm | - | 23 W/m² | - |
| 1778167426 | 19.44° C | 99% | 1007.7 hPa | 1.27 mm | - | 34 W/m² | - |
| 1778167122 | 19.44° C | 99% | 1007.2 hPa | 1.27 mm | - | 23 W/m² | - |
| 1778166818 | 19.44° C | 99% | 1007.4 hPa | 0 mm | - | 53 W/m² | - |
| 1778166516 | 19.44° C | 99% | 1007.2 hPa | 0 mm | - | 105 W/m² | - |
| 1778166212 | 19.44° C | 99% | 1007.2 hPa | 1.78 mm | - | 122 W/m² | - |
| 1778165908 | 18.89° C | 99% | 1007.5 hPa | 3.05 mm | - | 88 W/m² | - |
| 1778165605 | 19.44° C | 99% | 1007.6 hPa | 1.27 mm | - | 38 W/m² | - |
| 1778165302 | 18.89° C | 99% | 1007.7 hPa | 0 mm | - | 48 W/m² | - |
| 1778164695 | 18.89° C | 99% | 1007.3 hPa | 0 mm | - | 41 W/m² | - |
| 1778164393 | 18.89° C | 99% | 1007.1 hPa | 1.78 mm | - | 36 W/m² | - |
| 1778164089 | 18.89° C | 99% | 1006.9 hPa | 1.78 mm | - | 42 W/m² | - |
| 1778163786 | 18.89° C | 99% | 1007 hPa | 1.27 mm | - | 42 W/m² | - |
* Rain latest hour (hover to see other rain measurements)
** Current wind speed in m/s (hover to see current wind gust speed)